Location: La Pernelle
(49.6188°N, 1.2999°W)
Time: 07:46:19
(UTC+00:00)

SL-16 R/B - Pass Details

Date: 24 October 2021
Orbit: 842 x 846 km, 71.0° (Epoch: 04 December)

Event Time Altitude Azimuth Distance (km) Brightness Sun altitude
Rises 21:23:23 0° 283° (WNW) 3,406 6.0 -42.0°
Reaches altitude 10° 21:27:43 10° 315° (NW) 2,475 5.2 -42.5°
Maximum altitude 21:29:46 12° 336° (NNW) 2,344 5.0 -42.8°
Enters shadow 21:31:28 11° 354° (N) 2,437 5.0 -43.0°
